Change the Weather History Date:

Monday, February 24, 2014

  Actual Average Record
Temperature  
Mean Temperature 81 °F -  
Max Temperature 87 °F 83 °F - ()
Min Temperature 75 °F 74 °F - ()
Cooling Degree Days 16    
Growing Degree Days 31 (Base 50)    
Moisture  
Dew Point 69 °F    
Average Humidity 63    
Maximum Humidity 74    
Minimum Humidity 51    
Precipitation  
Precipitation 0.00 in - - ()
Sea Level Pressure  
Sea Level Pressure 29.94 in    
Wind  
Wind Speed 17 mph ()    
Max Wind Speed 23 mph    
Max Gust Speed -    
Visibility 8.7 miles    
Events      
T = Trace of Precipitation, MM = Missing Value Source: Averaged Metar Reports

Daily Weather History Graph

Daily Weather History Graph

Search for Another Location

Airport or City:

Trip Planner

Search our weather history database for the weather conditions in past years. The results will help you decide how hot, cold, wet, or windy it might be!

Date:

Astronomy

Feb. 24, 2014 Rise Set
Actual Time 6:06 AM CST 5:51 PM CST
Civil Twilight 5:45 AM CST 6:13 PM CST
Nautical Twilight 5:19 AM CST 6:38 PM CST
Astronomical Twilight 4:54 AM CST 7:04 PM CST
Moon 1:38 AM CST (2/24) 1:18 PM CST (2/24)
Length of Visible Light 12h 28m
Length of Day
11h 45m
Waning Crescent, 28% of the Moon is Illuminated
Feb 24
Waning Crescent
Mar 1
New
Mar 8
First Quarter
Mar 16
Full
Mar 23
Last Quarter

Hourly Weather History & Observations

Time (CST) Temp. Heat Index Dew Point Humidity Pressure Visibility Wind Dir Wind Speed Gust Speed Precip Events Conditions
6:00 AM 79 °F - 68 °F 62% 29.92 in 16 mi East 23.0 mph - -   Clear
6:00 AM 78.8 °F - 68.0 °F 69% 29.92 in - East 23.0 mph - N/A   Clear
7:00 AM 80.6 °F 83.2 °F 68.0 °F 65% 29.95 in - East 21.9 mph - N/A   Clear
8:00 AM 80.6 °F 83.2 °F 68.0 °F 65% 29.95 in 6.2 mi East 20.7 mph - N/A   Partly Cloudy
9:00 AM 82 °F - 69 °F 56% 29.98 in 16 mi East 20.7 mph - -   Scattered Clouds
9:00 AM 82.4 °F 86.3 °F 69.8 °F 66% 29.98 in 6.2 mi East 20.7 mph - N/A   Partly Cloudy
10:00 AM 84.2 °F 88.4 °F 69.8 °F 62% 30.01 in 6.2 mi East 17.3 mph - N/A   Partly Cloudy
11:00 AM 84.2 °F 87.3 °F 68.0 °F 58% 29.98 in 6.2 mi East 17.3 mph - N/A   Partly Cloudy
12:00 PM 85 °F - 69 °F 51% 29.98 in 12 mi East 16.1 mph - -   Haze
1:00 PM 84.2 °F 88.4 °F 69.8 °F 62% 29.92 in 6.2 mi East 19.6 mph - N/A   Clear
2:00 PM 84.2 °F 88.4 °F 69.8 °F 62% 29.92 in 6.2 mi East 19.6 mph - N/A   Clear
3:00 PM 84 °F - 70 °F 54% 29.90 in 12 mi East 21.9 mph - -   Haze
3:00 PM 84.2 °F 89.6 °F 71.6 °F 66% 29.89 in 6.2 mi ENE 18.4 mph - N/A   Clear
4:00 PM 84.2 °F 89.6 °F 71.6 °F 66% 29.89 in 6.2 mi ENE 17.3 mph - N/A   Clear
5:00 PM 82.4 °F 86.3 °F 69.8 °F 66% 29.89 in 6.2 mi ENE 18.4 mph - N/A   Clear
6:00 PM 81 °F - 68 °F 57% 29.91 in 12 mi ENE 15.0 mph - -   Haze
6:00 PM 80.6 °F 83.2 °F 68.0 °F 65% 29.92 in - ENE 16.1 mph - N/A   Clear
7:00 PM 78.8 °F - 69.8 °F 74% 29.92 in - ENE 16.1 mph - N/A   Clear
8:00 PM 78.8 °F - 69.8 °F 74% 29.95 in 6.2 mi ENE 12.7 mph - N/A   Partly Cloudy